Temp
16 16 17 17 17 17 17 17 17 17 17 17 18 18 18 18 19 19 21 19 19 18 18 19 21 20 20 21 20 20 18 19 20 19 19 21 20 21 21 20 20 21 21 22 22
16 17 17 17 17 17 17 18 18 18 18 18 18 18 18 18 18 21 20 19 19 18 18 19 19 20 20 21 20 18 17 19 20 20 19 19 19 19 19 19 19 20 21 22 22
17 17 17 17 17 17 18 18 18 18 17 17 18 18 18 18 19 21 20 19 19 18 18 19 20 21 21 21 21 19 18 20 20 20 19 19 18 19 18 18 19 18 19 20 21
16 17 17 17 17 18 18 18 18 18 17 17 17 18 18 17 21 20 19 19 18 18 18 20 20 20 19 19 21 19 20 20 20 19 19 18 19 18 18 18 19 19 19 19 19
16 17 17 17 18 18 18 18 18 18 18 17 17 17 17 19 21 20 19 19 18 18 19 19 19 19 18 19 19 19 19 19 19 20 19 19 18 18 17 18 19 20 19 18 18
16 17 17 18 18 18 18 18 19 19 18 18 17 17 17 20 20 19 19 19 19 19 20 20 19 19 18 18 19 19 18 18 20 19 19 18 15 16 17 17 18 17 17 17 18
17 17 17 18 18 18 19 19 19 17 18 18 17 17 18 20 20 19 19 18 18 18 19 19 18 18 18 18 20 19 17 19 19 19 19 18 16 14 14 15 14 14 15 16 13
17 17 17 18 18 18 19 19 17 17 18 17 17 16 20 19 19 20 19 20 18 18 18 17 17 17 18 19 19 18 20 18 18 18 19 19 14 14 13 12 11 11 12 12 14
17 17 17 18 18 19 19 17 17 17 17 17 17 18 20 20 20 19 18 19 18 18 17 18 17 18 18 18 18 18 16 18 18 18 18 16 14 12 12 11 10 9 9 10 12
17 17 17 18 18 19 18 17 17 17 17 16 17 18 21 20 19 18 19 18 19 19 18 18 18 17 17 16 14 15 16 17 17 18 17 15 14 12 11 10 8 7 7 9 10
16 17 17 17 18 18 20 18 17 18 18 17 18 19 20 19 19 19 18 19 19 19 19 20 17 16 16 17 17 17 17 17 18 19 17 15 14 13 11 8 7 6 5 8 9
16 17 17 17 17 17 17 15 13 12 14 18 18 18 19 18 19 20 19 20 20 19 20 18 17 17 18 18 17 19 17 17 18 19 18 16 13 11 9 7 7 4 6 8 9
16 16 17 17 17 15 13 12 11 12 14 19 19 20 19 18 19 19 18 19 19 19 19 19 18 18 18 18 17 18 15 16 16 17 18 17 15 14 12 9 9 7 8 7 8
15 16 16 18 17 16 13 11 11 11 17 20 20 19 19 19 19 18 18 18 20 19 18 19 19 18 17 18 16 16 15 16 16 16 16 18 13 13 13 11 11 8 8 8 7
15 16 16 16 15 16 13 11 11 12 18 20 20 19 20 19 19 18 17 18 18 18 19 17 17 16 17 17 16 17 16 15 16 15 16 17 13 13 12 11 10 10 9 8 9
15 15 15 15 14 13 12 11 11 17 14 19 20 20 20 20 20 20 19 18 19 18 18 18 17 17 16 16 17 16 17 16 16 15 12 16 14 10 10 10 10 9 9 9 9
15 15 15 15 14 14 12 12 17 17 20 19 18 19 18 19 20 19 19 18 16 14 16 18 17 17 17 16 17 15 14 12 13 13 13 15 14 11 11 10 9 9 8 8 8
14 15 14 14 14 14 12 17 17 20 19 19 19 18 19 18 19 19 19 18 17 17 15 15 13 17 16 16 14 14 15 11 14 13 14 16 13 10 11 10 10 9 8 8 7
14 15 14 14 14 14 15 18 18 18 18 17 18 19 19 19 18 19 19 18 16 16 15 15 16 16 16 16 15 15 13 15 13 15 13 13 12 12 11 10 9 8 8 7 7
13 14 15 15 15 14 16 18 19 18 17 17 17 19 18 18 18 19 19 17 16 16 17 16 13 17 16 15 15 15 15 13 12 14 15 15 15 11 10 9 9 8 7 6 6
13 13 14 15 14 14 16 18 18 17 16 17 17 18 18 18 18 18 19 16 17 16 16 16 15 15 16 15 16 15 15 15 14 13 13 13 12 11 9 9 8 8 7 6 5
13 14 14 15 15 16 17 18 13 17 16 16 15 16 16 17 17 17 18 17 16 16 16 14 14 12 15 15 15 15 15 15 13 14 12 12 10 10 9 9 8 7 7 6 5
12 12 14 14 15 16 16 17 16 16 16 16 16 16 17 16 16 17 17 15 15 16 15 15 13 11 14 14 14 14 15 15 14 12 11 12 11 10 8 8 7 6 5 5 5
12 13 13 13 12 14 16 17 17 15 15 16 16 16 16 15 15 15 16 14 14 15 12 14 13 13 12 14 14 14 14 14 13 10 12 12 13 9 9 8 6 5 4 4 3
10 12 12 14 14 15 14 14 16 15 14 15 15 15 15 15 16 15 15 15 13 13 12 12 12 12 12 13 13 12 13 13 11 11 11 14 13 9 8 6 5 4 4 4 3
10 10 10 12 12 14 13 13 14 15 16 15 13 15 15 14 15 14 15 14 14 12 12 12 11 12 11 12 12 11 13 13 13 13 12 12 12 7 6 5 5 3 3 3 2
10 10 10 11 12 13 13 14 14 14 15 16 14 14 13 14 13 13 13 12 13 13 12 12 11 11 11 13 12 11 11 11 12 10 10 10 7 7 6 5 3 2 2 2 1
Height
844 842 840 838 836 834 831 828 826 825 823 821 819 817 816 814 813 812 810 812 811 808 806 803 801 800 798 797 799 797 807 803 799 802 800 790 794 788 785 787 784 782 782 781 775
846 843 841 838 836 834 831 827 825 824 822 820 818 817 816 813 812 811 812 811 810 808 807 805 804 800 798 798 797 803 812 803 797 797 799 795 797 793 792 789 787 782 776 776 776
847 844 841 838 835 833 830 826 823 822 820 818 817 816 815 813 813 809 811 810 808 807 808 807 803 799 798 793 795 802 811 800 797 796 797 798 798 791 793 794 786 784 778 772 772
847 845 842 838 835 832 828 825 822 820 818 816 815 815 814 814 819 809 810 809 808 807 808 806 802 802 803 804 797 806 798 796 796 795 797 799 793 794 791 790 782 778 774 772 770
848 845 842 839 835 830 827 824 820 818 814 813 813 814 815 814 811 811 810 809 809 809 807 806 805 805 811 805 800 800 800 797 794 794 796 792 797 794 796 787 780 775 773 771 769
848 845 842 838 834 829 825 821 817 813 811 811 811 813 815 816 813 812 811 811 810 809 807 806 806 806 807 805 803 799 798 797 793 796 793 799 804 797 799 792 784 780 773 766 764
849 845 841 837 832 827 823 819 814 812 811 810 811 813 815 815 813 812 811 811 810 809 809 808 809 808 804 804 794 797 803 792 795 796 796 793 805 813 809 799 797 790 780 772 770
849 845 841 836 831 827 822 817 814 813 812 811 812 814 812 813 812 812 812 811 810 810 810 809 809 808 805 797 794 800 791 806 801 797 792 793 814 811 812 804 806 799 790 782 778
849 845 841 835 830 826 821 817 816 815 814 813 814 814 814 812 813 813 812 811 810 810 809 809 809 806 802 806 806 803 818 808 801 798 799 805 816 819 818 811 811 807 799 793 782
850 846 841 835 830 826 821 818 816 816 816 815 816 819 813 815 813 812 812 811 810 809 809 808 808 811 810 817 832 823 819 809 811 805 804 813 816 822 823 819 821 814 805 793 788
850 846 841 836 831 827 821 818 821 820 818 821 820 817 815 816 813 812 812 810 809 809 812 805 816 825 819 814 813 811 810 808 803 799 804 809 817 822 827 828 822 817 812 796 786
850 846 842 837 832 830 826 828 837 838 831 820 820 817 816 816 815 812 812 812 808 813 805 814 821 815 808 806 809 800 807 811 802 796 801 806 821 828 829 835 831 827 815 800 788
850 846 842 837 833 832 832 836 836 837 834 820 819 819 819 819 816 815 814 812 811 812 812 814 815 810 808 807 813 805 816 815 813 802 797 800 812 817 818 830 828 822 814 803 800
851 847 842 837 836 835 836 836 835 836 830 827 821 821 819 819 820 817 815 817 810 815 815 814 808 813 813 812 816 814 813 812 808 809 812 791 825 816 817 823 821 825 817 814 811
851 848 844 839 839 837 839 836 835 836 843 825 821 818 816 821 819 818 817 814 818 820 817 820 819 820 817 815 813 812 807 814 809 811 806 802 819 824 821 825 829 828 827 826 819
852 848 845 842 840 840 837 834 836 836 865 830 822 821 819 815 816 815 815 815 813 816 812 813 815 816 818 812 808 807 802 804 803 808 829 806 815 843 837 838 837 836 833 833 831
852 848 845 843 842 838 835 836 837 844 825 832 832 825 825 821 819 820 821 823 829 838 828 816 818 818 816 816 807 814 815 831 829 826 824 806 817 839 838 838 839 842 842 840 840
851 848 844 843 840 837 835 834 846 831 833 830 829 828 830 827 822 820 821 824 824 827 835 838 842 821 820 825 828 826 822 845 832 831 823 802 821 836 834 837 838 839 842 842 842
850 846 844 843 841 838 837 841 843 839 837 838 828 828 823 824 824 820 819 825 829 829 837 836 828 821 821 821 825 823 835 825 833 814 824 817 827 832 835 840 844 847 847 848 847
850 847 844 843 840 840 840 839 835 837 838 837 840 832 834 830 830 822 819 826 830 829 827 830 847 819 820 821 821 823 822 833 836 831 820 807 807 831 838 843 846 850 853 854 853
851 849 842 842 841 841 845 836 836 836 838 839 836 835 830 832 831 830 823 832 827 829 827 828 833 829 824 825 822 825 824 822 827 830 835 829 827 830 841 843 848 851 853 855 856
852 852 843 841 844 838 841 835 845 837 839 839 840 838 836 832 833 830 827 826 827 827 830 832 834 840 825 822 821 822 823 825 836 830 834 832 841 837 843 846 847 852 854 856 856
852 850 843 843 845 839 841 840 841 841 840 840 838 836 833 836 840 828 826 831 830 831 831 833 837 845 826 830 828 829 822 823 828 835 840 836 834 835 842 847 851 856 856 856 855
854 851 845 844 845 844 840 836 838 841 842 839 838 837 837 837 835 833 831 832 833 834 838 836 836 833 838 824 825 827 825 824 828 846 830 824 818 838 839 843 851 856 858 859 859
854 850 847 844 844 840 841 842 839 841 842 840 836 837 837 839 831 836 831 830 833 835 838 840 840 833 828 823 825 825 823 822 831 829 831 811 814 832 840 848 853 856 858 860 861
853 852 852 847 845 843 846 843 839 836 837 838 841 832 833 837 832 833 831 831 831 836 835 838 841 831 835 821 822 822 811 810 810 811 814 815 816 839 846 850 854 859 861 863 865
849 849 850 847 844 846 840 836 836 836 831 830 836 837 834 833 832 831 832 832 829 829 833 834 837 836 830 818 818 819 806 808 805 816 817 820 837 841 846 850 858 863 864 866 868
Wind_Speed
16 15 15 15 15 15 15 15 14 13 13 13 12 13 14 13 4 6 4 5 5 10 12 15 11 13 7 1 2 4 3 4 7 8 10 11 10 9 10 9 10 7 7 11 30
17 17 16 17 16 16 16 16 14 13 13 13 13 12 13 11 4 7 2 5 7 9 10 13 10 12 2 3 2 2 4 8 9 8 9 10 11 11 11 11 11 12 12 18 20
17 17 18 18 18 18 19 18 15 13 13 13 12 11 10 8 5 4 3 5 7 8 8 9 11 8 5 3 2 5 4 9 8 8 8 12 12 10 11 11 11 12 14 9 12
17 18 19 20 20 22 21 17 16 16 17 15 13 9 7 2 3 3 4 6 8 5 6 9 8 6 6 7 7 3 8 5 7 8 8 10 10 7 8 10 9 11 10 8 8
19 19 21 22 22 23 20 19 20 19 19 15 9 4 2 4 2 2 5 7 6 4 6 6 7 7 7 8 9 3 8 9 8 4 7 7 11 9 14 21 11 9 8 9 9
20 21 22 24 26 25 20 23 23 18 10 7 1 2 1 2 4 3 5 6 4 5 8 5 5 6 7 9 6 7 9 11 2 7 6 7 4 9 18 20 22 19 13 12 10
21 23 25 26 28 22 24 25 16 9 7 4 4 5 3 2 2 3 6 5 3 5 6 7 5 4 7 7 3 7 7 6 7 7 2 7 12 17 19 20 23 25 22 17 11
22 24 26 28 28 22 26 23 9 7 5 4 5 1 2 2 0 5 5 4 3 3 3 4 3 5 3 8 5 4 1 6 10 8 7 3 12 17 16 19 22 24 21 20 8
22 24 27 29 27 23 25 12 7 6 5 5 2 2 4 3 2 6 5 6 4 1 2 3 4 3 7 6 5 7 6 8 5 7 10 11 6 13 15 20 22 21 20 16 15
23 26 28 30 23 24 20 10 5 4 6 3 2 2 1 3 4 3 4 5 3 1 3 4 3 3 5 6 4 7 6 5 6 4 11 8 7 9 11 20 17 20 20 17 15
24 27 28 30 18 22 21 4 4 1 7 3 4 3 2 10 2 1 4 4 4 4 4 2 2 5 8 5 7 10 6 4 4 4 5 6 9 10 11 17 19 20 19 19 14
24 27 28 28 14 20 19 7 3 2 5 3 3 3 1 3 2 3 11 3 3 5 4 2 4 5 7 8 8 4 5 6 4 2 4 7 11 13 15 15 15 16 16 19 25
25 27 29 27 10 12 15 7 1 1 3 2 2 3 3 4 3 4 8 3 3 5 5 3 3 6 9 5 11 6 4 3 4 6 8 7 5 6 11 14 12 18 20 27 26
24 25 28 25 4 13 4 9 3 1 2 3 2 2 2 4 1 3 5 1 3 4 6 2 3 6 9 6 8 6 6 6 6 6 2 4 2 8 11 15 17 19 21 20 21
24 24 25 17 10 4 9 9 4 2 3 3 2 2 2 2 5 2 1 3 5 6 3 2 4 4 6 4 5 5 6 6 6 7 6 6 3 5 12 12 16 17 19 19 21
22 23 25 14 7 8 14 7 1 1 2 2 2 2 4 3 2 4 4 4 1 3 6 2 2 1 3 9 5 9 5 8 7 3 2 2 2 5 5 6 10 13 15 16 16
21 22 19 13 6 15 13 3 3 4 2 2 3 5 5 2 1 3 3 4 4 5 5 4 3 3 3 7 2 9 6 3 3 1 3 4 3 4 6 6 8 9 11 12 13
20 21 16 8 11 13 5 2 4 2 5 1 3 8 3 5 2 3 4 2 5 5 5 3 4 2 5 3 3 5 1 2 4 3 4 6 4 3 8 7 7 8 9 9 12
19 15 9 7 12 10 2 2 2 4 2 7 8 3 4 4 2 3 3 2 4 6 3 4 4 3 3 2 3 6 4 1 4 5 3 4 5 4 7 7 7 8 9 9 10
15 8 4 8 9 5 2 2 2 2 2 2 4 2 5 7 6 2 1 2 4 3 3 1 5 2 3 1 4 2 2 2 2 4 4 3 4 4 7 6 7 8 9 9 8
5 4 2 7 7 1 2 1 1 4 0 2 3 5 4 6 3 4 2 2 1 4 2 1 4 4 1 4 1 1 1 2 1 1 2 4 1 4 7 6 7 7 7 7 7
1 3 3 5 2 1 3 2 2 1 2 3 2 4 4 5 4 4 3 3 3 1 2 1 2 3 4 3 3 2 3 2 1 2 3 2 3 7 7 6 7 7 6 6 7
1 3 4 1 2 2 2 1 2 3 3 3 3 4 3 3 4 4 2 2 1 3 1 2 2 4 1 2 1 3 4 4 3 3 5 2 3 7 8 8 8 7 7 7 9
0 2 2 1 2 1 3 4 2 0 3 3 3 2 3 4 6 4 2 3 3 2 3 2 4 6 5 6 1 4 3 5 5 3 4 6 1 7 7 7 7 7 6 7 7
1 3 1 2 2 3 3 2 3 3 3 2 4 7 5 4 2 5 6 4 5 4 1 1 5 7 8 9 7 9 12 10 9 9 6 2 4 6 6 7 7 7 6 6 7
3 2 1 2 1 0 4 4 5 3 2 5 6 6 6 7 6 3 2 4 5 4 4 4 4 3 5 11 12 12 14 14 14 13 10 10 7 9 7 7 6 7 6 6 7
4 1 2 3 2 1 4 5 4 1 7 6 4 6 7 6 4 5 3 6 4 3 6 4 3 3 4 1 6 9 12 5 5 4 2 4 3 5 6 6 5 6 6 6 6
Wind_Direction
27 21 13 4 2 358 352 344 338 335 332 329 330 336 340 342 323 312 11 350 332 332 347 334 13 357 288 316 341 318 289 334 17 356 333 328 337 330 320 308 298 279 269 284 297
22 16 10 3 359 355 348 341 335 332 332 328 324 327 337 343 330 290 8 334 333 336 349 353 354 330 326 352 181 333 331 4 359 342 333 341 324 319 309 314 304 294 281 275 264
21 14 7 1 357 354 345 336 330 322 323 321 318 317 334 343 274 83 348 343 342 341 323 320 299 288 292 216 28 5 290 312 324 337 335 314 305 308 316 301 300 306 307 277 273
14 7 3 358 354 350 345 341 335 324 314 309 303 303 326 359 12 120 337 335 336 341 321 314 317 357 289 9 346 279 271 304 340 325 324 304 294 312 309 309 316 309 295 292 283
7 4 359 355 351 347 343 337 330 322 309 309 299 281 349 232 37 43 349 336 352 342 315 343 319 355 356 334 329 350 344 322 297 351 297 331 341 294 360 342 327 310 297 294 292
6 2 359 355 351 345 342 337 334 327 325 321 255 173 280 273 85 23 337 342 333 310 320 336 353 329 277 309 298 336 303 284 15 22 355 2 39 44 357 337 342 354 321 264 231
6 2 359 355 352 349 341 339 343 357 353 352 149 132 255 16 55 11 356 356 352 322 319 18 345 314 325 291 351 274 294 302 90 27 10 312 61 30 6 1 0 353 353 351 15
5 1 358 354 352 349 343 342 5 13 31 73 124 142 357 141 72 11 346 314 334 6 341 328 310 277 238 283 241 224 166 39 62 18 326 265 36 23 14 24 359 355 351 359 352
2 360 357 353 354 353 345 2 26 46 37 96 69 253 96 83 11 345 353 336 323 335 311 292 288 289 303 325 353 23 337 346 55 9 53 56 356 40 22 31 8 354 344 342 336
0 359 357 356 358 358 352 351 23 31 7 3 298 262 85 15 332 324 332 342 299 285 231 237 234 281 5 9 359 321 331 324 56 324 76 86 80 59 37 32 357 351 344 345 337
358 357 357 355 359 6 16 345 339 165 17 22 335 294 54 334 318 192 336 307 237 216 341 119 14 23 345 344 296 282 299 296 108 282 86 108 85 63 43 26 360 345 343 349 340
356 355 356 352 355 9 39 62 65 266 320 141 278 234 254 338 264 102 342 278 281 302 316 207 69 4 301 285 326 313 333 20 164 258 321 111 106 80 60 34 2 341 349 18 28
353 353 352 352 356 13 52 54 358 257 253 133 36 346 10 332 1 8 358 331 305 303 359 322 30 323 309 17 350 341 36 342 285 312 265 251 100 89 70 59 16 15 15 31 26
349 351 353 356 34 348 49 348 351 213 218 38 97 84 294 322 248 1 358 328 243 333 335 38 357 346 330 10 4 309 20 296 281 314 306 96 238 68 31 37 31 26 20 26 31
347 350 351 358 334 18 319 334 325 246 93 353 62 262 187 317 309 164 322 275 347 329 313 288 3 349 342 359 332 289 312 282 294 290 308 11 23 353 42 19 24 27 33 28 28
345 345 345 350 344 324 330 334 296 25 316 28 267 335 353 148 117 298 219 229 288 282 224 185 145 265 311 295 248 280 287 246 238 235 357 37 88 8 28 4 29 31 31 32 37
341 338 334 337 317 322 334 266 8 76 153 30 321 345 333 341 243 32 331 29 20 5 344 327 155 119 294 329 313 357 1 323 341 28 222 186 39 97 81 58 50 47 36 31 34
334 332 331 325 328 334 350 280 31 83 43 91 270 299 285 4 152 300 282 195 71 350 304 355 331 28 354 41 308 306 350 106 301 356 295 186 118 190 119 110 88 68 58 34 32
331 334 315 303 332 343 310 352 1 26 1 337 292 257 172 183 222 317 138 59 58 17 39 342 298 151 65 341 10 320 38 22 292 262 294 144 79 113 126 96 66 54 52 43 32
332 317 267 322 333 334 307 269 64 46 327 257 294 11 332 358 336 275 189 62 122 27 358 29 308 360 133 193 237 298 312 328 288 323 309 270 138 147 134 107 81 50 41 36 24
331 317 305 337 331 259 249 329 26 113 282 254 314 288 291 328 328 288 342 96 56 137 304 352 182 278 8 198 33 237 247 264 192 209 290 319 18 90 107 88 99 82 77 53 39
326 283 325 355 333 162 298 17 348 256 166 241 247 274 272 311 280 277 311 94 80 19 297 96 264 271 265 46 15 347 325 314 281 357 287 170 276 98 105 93 74 69 56 56 43
228 275 339 17 264 217 117 112 284 231 231 209 256 225 25 289 294 249 354 101 114 249 347 98 263 314 173 49 41 283 234 226 328 39 241 290 245 135 133 105 88 68 39 38 30
104 286 280 4 143 151 296 287 233 134 290 291 291 10 259 255 234 262 275 159 136 333 43 26 254 214 232 271 348 255 228 217 219 208 269 254 296 174 150 129 92 76 51 52 48
132 249 207 246 201 213 84 16 228 240 210 244 250 230 228 265 255 250 237 209 180 155 163 255 261 252 264 282 289 268 267 252 217 212 228 221 3 163 120 99 93 83 50 49 42
161 212 326 299 166 196 161 221 221 265 172 236 234 297 236 239 238 307 233 184 226 165 184 185 271 277 273 262 259 264 261 248 248 247 253 257 262 98 103 96 80 77 45 41 32
193 224 98 159 173 191 223 219 230 289 230 256 342 302 279 268 323 325 284 297 269 205 193 185 231 297 262 266 295 270 268 248 208 81 93 231 83 128 119 83 72 65 44 25 25